Location: Unspecified
(0.0000°N, 0.0000°E)
Time: 06:40:56
(UTC+00:00)

Altair - Pass Details

Date: 23 November 2019
Orbit: 1502 x 1682 km, 47.2° (Epoch: 10 December)

Event Time Altitude Azimuth Distance (km) Brightness Sun altitude
Rises 23:37:54 0° 239° (WSW) 4,796 - -69.5°
Reaches altitude 10° 23:41:22 10° 247° (WSW) 3,782 - -69.5°
Maximum altitude 23:49:51 36° 310° (NW) 2,247 - -69.5°
Drops below altitude 10° 23:58:08 10° 14° (NNE) 3,665 - -69.4°
Sets 00:01:28 0° 23° (NNE) 4,632 - -69.2°
